Weather History for KJMS - April, 2013

Change the Weather History Date:

Thursday, April 11, 2013

  Actual Average Record
Temperature  
Mean Temperature 29 °F 40 °F  
Max Temperature 31 °F 53 °F 84 °F (1968)
Min Temperature 26 °F 28 °F 0 °F (1939)
Degree Days  
Heating Degree Days 36 25  
Month to date heating degree days 426 300  
Since 1 July heating degree days 8732 8220  
Cooling Degree Days 0 0  
Month to date cooling degree days 0 0  
Year to date cooling degree days 0 0  
Moisture  
Dew Point 24 °F    
Average Humidity 77    
Maximum Humidity 85    
Minimum Humidity 69    
Precipitation  
Precipitation T in 0.03 in 0.84 in (1965)
Month to date precipitation 0.07 0.35  
Year to date precipitation 0.84 2.04  
Sea Level Pressure  
Sea Level Pressure 29.88 in    
Wind  
Wind Speed 14 mph (NE)    
Max Wind Speed 23 mph    
Max Gust Speed 28 mph    
Visibility 5 miles    
Events Snow    
T = Trace of Precipitation, MM = Missing Value Source: NWS Daily Summary

Daily Weather History Graph

Daily Weather History Graph

Search for Another Location

Airport or City:

Trip Planner

Search our weather history database for the weather conditions in past years. The results will help you decide how hot, cold, wet, or windy it might be!

Date:

Astronomy

Apr. 11, 2013 Rise Set
Actual Time 6:53 AM CDT 8:18 PM CDT
Civil Twilight 6:22 AM CDT 8:49 PM CDT
Nautical Twilight 5:44 AM CDT 9:28 PM CDT
Astronomical Twilight 5:03 AM CDT 10:09 PM CDT
Moon 7:21 AM CDT (4/11) 10:01 PM CDT (4/11)
Length of Visible Light 14h 27m
Length of Day
13h 24m
New Moon, 2% of the Moon is Illuminated
Apr 11
New Moon
Apr 18
First Quarter
Apr 25
Full
May 2
Last Quarter
May 9
New

Hourly Weather History & Observations

Time (CDT) Temp. Windchill Dew Point Humidity Pressure Visibility Wind Dir Wind Speed Gust Speed Precip Events Conditions
12:56 AM 28.0 °F 17.5 °F 21.0 °F 75% 30.06 in 10.0 mi North 12.7 mph - N/A   Overcast
1:56 AM 28.0 °F 16.1 °F 19.9 °F 72% 30.03 in 10.0 mi NE 16.1 mph - N/A   Overcast
2:56 AM 28.9 °F 19.2 °F 21.0 °F 72% 30.00 in 10.0 mi NE 11.5 mph - N/A   Overcast
3:56 AM 28.9 °F 19.8 °F 21.0 °F 72% 29.97 in 10.0 mi ENE 10.4 mph - N/A   Overcast
4:56 AM 28.9 °F 19.8 °F 21.9 °F 75% 29.96 in 10.0 mi NE 10.4 mph - N/A   Overcast
5:56 AM 28.9 °F 18.2 °F 21.0 °F 72% 29.91 in 10.0 mi NE 13.8 mph - N/A   Overcast
6:56 AM 28.9 °F 18.6 °F 21.9 °F 75% 29.90 in 10.0 mi NE 12.7 mph - N/A   Overcast
7:56 AM 28.9 °F 20.4 °F 21.0 °F 72% 29.92 in 10.0 mi ENE 9.2 mph - N/A   Overcast
8:56 AM 30.0 °F 22.4 °F 21.9 °F 72% 29.92 in 10.0 mi NE 8.1 mph - N/A   Overcast
9:56 AM 30.0 °F 20.0 °F 21.9 °F 72% 29.91 in 7.0 mi ENE 12.7 mph - 0.00 in Snow Light Snow
10:56 AM 30.0 °F 18.7 °F 21.9 °F 72% 29.92 in 3.0 mi ENE 16.1 mph - 0.00 in Snow Light Snow
11:12 AM 30.2 °F 18.9 °F 21.2 °F 69% 29.86 in 2.5 mi ENE 16.1 mph - 0.00 in Snow Light Snow
11:29 AM 30.2 °F 18.9 °F 21.2 °F 69% 29.86 in 7.0 mi ENE 16.1 mph - 0.00 in Snow Light Snow
11:52 AM 28.4 °F 16.6 °F 23.0 °F 80% 29.85 in 2.0 mi ENE 16.1 mph - 0.00 in Snow Light Snow
11:56 AM 28.9 °F 17.3 °F 24.1 °F 82% 29.91 in 4.0 mi ENE 16.1 mph - 0.00 in Snow Light Snow
12:05 PM 28.4 °F 15.8 °F 24.8 °F 86% 29.86 in 2.0 mi NE 18.4 mph - 0.00 in Snow Light Snow
12:11 PM 28.4 °F 16.6 °F 24.8 °F 86% 29.85 in 0.8 mi ENE 16.1 mph - 0.00 in Snow Light Snow
12:21 PM 28.4 °F 17.0 °F 24.8 °F 86% 29.85 in 0.8 mi NE 15.0 mph - 0.00 in Snow Light Snow
12:33 PM 28.4 °F 15.8 °F 24.8 °F 86% 29.85 in 1.2 mi NE 18.4 mph - 0.00 in Snow Light Snow
12:46 PM 28.4 °F 18.0 °F 24.8 °F 86% 29.85 in 0.8 mi NE 12.7 mph - 0.00 in Snow Light Snow
12:56 PM 28.0 °F 15.7 °F 25.0 °F 88% 29.91 in 1.0 mi NE 17.3 mph 21.9 mph 0.00 in Snow Light Snow
1:19 PM 28.4 °F 17.5 °F 26.6 °F 93% 29.84 in 2.0 mi NE 13.8 mph - 0.00 in Snow Light Snow
1:27 PM 30.2 °F 18.5 °F 26.6 °F 86% 29.84 in 1.8 mi NE 17.3 mph - 0.00 in Snow Light Snow
1:39 PM 30.2 °F 19.3 °F 24.8 °F 80% 29.84 in 1.8 mi NE 15.0 mph - 0.00 in Snow Light Snow
1:45 PM 30.2 °F 18.5 °F 26.6 °F 86% 29.84 in 1.8 mi NE 17.3 mph - 0.00 in Snow Light Snow
1:53 PM 30.2 °F 18.5 °F 26.6 °F 86% 29.84 in 1.5 mi NE 17.3 mph - 0.00 in Snow Light Snow
1:56 PM 30.0 °F 18.3 °F 26.1 °F 85% 29.90 in 1.5 mi NE 17.3 mph - 0.00 in Snow Light Snow
1:58 PM 30.2 °F 18.5 °F 26.6 °F 86% 29.83 in 1.2 mi NE 17.3 mph - 0.00 in Snow Light Snow
2:24 PM 30.2 °F 18.5 °F 26.6 °F 86% 29.83 in 3.0 mi NE 17.3 mph - 0.00 in Snow Light Snow
2:28 PM 30.2 °F 18.5 °F 26.6 °F 86% 29.83 in 3.0 mi NE 17.3 mph - 0.00 in Snow Light Snow
2:38 PM 30.2 °F 17.8 °F 26.6 °F 86% 29.82 in 2.0 mi NE 19.6 mph - 0.00 in Snow Light Snow
2:56 PM 30.9 °F 19.1 °F 27.0 °F 85% 29.88 in 2.5 mi NE 18.4 mph - 0.00 in Snow Light Snow
3:03 PM 30.2 °F 17.8 °F 26.6 °F 86% 29.82 in 3.0 mi NE 19.6 mph 25.3 mph 0.00 in Snow Light Snow
3:56 PM 28.9 °F 16.5 °F 25.0 °F 85% 29.89 in 4.0 mi ENE 18.4 mph 27.6 mph 0.00 in Snow Light Snow
4:22 PM 28.4 °F 15.8 °F 24.8 °F 86% 29.83 in 2.5 mi ENE 18.4 mph - 0.00 in Snow Light Snow
4:32 PM 28.4 °F 15.4 °F 24.8 °F 86% 29.83 in 1.5 mi ENE 19.6 mph - 0.00 in Snow Light Snow
4:45 PM 28.4 °F 14.7 °F 24.8 °F 86% 29.83 in 3.0 mi ENE 21.9 mph - 0.00 in Snow Light Snow
4:56 PM 28.9 °F 17.3 °F 24.1 °F 82% 29.89 in 3.0 mi ENE 16.1 mph - 0.00 in Snow Light Snow
5:56 PM 28.0 °F 16.1 °F 24.1 °F 85% 29.91 in 3.0 mi NE 16.1 mph - 0.00 in Snow Light Snow
5:58 PM 28.4 °F 15.4 °F 24.8 °F 86% 29.84 in 2.5 mi NE 19.6 mph - 0.00 in Snow Light Snow
6:24 PM 28.4 °F 16.2 °F 24.8 °F 86% 29.85 in 3.0 mi NE 17.3 mph - 0.00 in Snow Light Snow
6:32 PM 28.4 °F 15.1 °F 24.8 °F 86% 29.85 in 2.0 mi NE 20.7 mph - 0.00 in Snow Light Snow
6:47 PM 28.4 °F 15.4 °F 23.0 °F 80% 29.85 in 4.0 mi ENE 19.6 mph - 0.00 in Snow Light Snow
6:56 PM 28.0 °F 16.5 °F 23.0 °F 81% 29.91 in 5.0 mi NE 15.0 mph - 0.00 in Snow Light Snow
7:24 PM 26.6 °F 13.1 °F 23.0 °F 86% 29.86 in 2.0 mi NE 19.6 mph - 0.00 in Snow Light Snow
7:35 PM 26.6 °F 13.8 °F 23.0 °F 86% 29.86 in 3.0 mi ENE 17.3 mph - 0.00 in Snow Light Snow
7:56 PM 27.0 °F 15.2 °F 23.0 °F 85% 29.92 in 3.0 mi NE 15.0 mph - 0.00 in Snow Light Snow
8:07 PM 26.6 °F 14.3 °F 23.0 °F 86% 29.85 in 1.8 mi NE 16.1 mph - 0.00 in Snow Light Snow
8:26 PM 26.6 °F 14.7 °F 23.0 °F 86% 29.85 in 2.5 mi NE 15.0 mph - 0.00 in Snow Light Snow
8:28 PM 26.6 °F 14.7 °F 23.0 °F 86% 29.85 in 3.0 mi NE 15.0 mph - 0.00 in Snow Light Snow
8:56 PM 26.1 °F 14.5 °F 21.9 °F 84% 29.91 in 9.0 mi NE 13.8 mph - 0.00 in Snow Light Snow
9:56 PM 26.1 °F 14.5 °F 23.0 °F 88% 29.92 in 10.0 mi NNE 13.8 mph - 0.00 in   Overcast
10:08 PM 26.6 °F 15.2 °F 23.0 °F 86% 29.86 in 10.0 mi NNE 13.8 mph - N/A   Overcast
10:56 PM 26.1 °F 15.0 °F 23.0 °F 88% 29.92 in 10.0 mi NNE 12.7 mph - N/A   Overcast
11:18 PM 26.6 °F 15.7 °F 23.0 °F 86% 29.85 in 10.0 mi NE 12.7 mph - N/A   Overcast
11:54 PM 26.6 °F 16.2 °F 23.0 °F 86% 29.86 in 10.0 mi NE 11.5 mph - N/A   Overcast
11:56 PM 26.1 °F 15.6 °F 23.0 °F 88% 29.92 in 10.0 mi NE 11.5 mph - N/A   Overcast